Location: Rockford
(42.2710°N, 89.0940°W)
Time: 23:49:46
(UTC-05:00)

SPOT 5 - Visible Passes

Search period start: 21 April 2018 00:00
Search period end: 01 May 2018 00:00
Orbit: 622 x 816 km, 98.4° (Epoch: 21 April)

Date Brightness Start Highest point End Pass type
(mag) Time Alt. Az. Time Alt. Az. Time Alt. Az.
21 Apr 3.9 21:28:34 24° E 21:29:13 25° ENE 21:32:51 10° NNE visible
21 Apr 4.2 23:07:48 32° W 23:07:48 32° W 23:11:15 10° NNW visible
22 Apr 2.6 22:17:03 74° ENE 22:17:03 74° ENE 22:21:27 10° N visible
22 Apr 5.5 23:56:17 10° W 23:56:17 10° W 23:56:31 10° WNW visible
23 Apr 4.0 21:26:17 22° E 21:27:06 23° ENE 21:30:37 10° NNE visible
23 Apr 4.0 23:05:31 34° W 23:05:31 34° W 23:09:07 10° NNW visible
24 Apr 2.6 22:14:46 70° E 22:14:51 70° ENE 22:19:16 10° N visible
24 Apr 5.4 23:54:00 11° W 23:54:00 11° W 23:54:40 10° WNW visible
25 Apr 4.1 21:24:00 20° E 21:24:59 22° ENE 21:28:23 10° NNE visible
25 Apr 3.9 23:03:14 36° W 23:03:14 36° W 23:06:58 10° NNW visible
26 Apr 2.6 22:12:29 64° E 22:12:44 66° ENE 22:17:05 10° N visible
26 Apr 5.3 23:51:43 11° W 23:51:43 11° W 23:52:45 10° WNW visible
27 Apr 4.1 21:21:43 19° E 21:22:52 21° ENE 21:26:08 10° NNE visible
27 Apr 3.7 23:00:57 38° W 23:00:57 38° W 23:04:51 10° NNW visible
28 Apr 2.6 22:10:11 59° ESE 22:10:35 62° ENE 22:14:55 10° N visible
28 Apr 5.3 23:49:25 12° W 23:49:25 12° W 23:50:48 10° WNW visible
29 Apr 4.2 21:19:26 17° E 21:20:45 20° ENE 21:23:53 10° NNE visible
29 Apr 3.6 22:58:40 40° W 22:58:40 40° W 23:02:42 10° NNW visible
30 Apr 2.7 22:07:54 54° ESE 22:08:27 59° ENE 22:12:43 10° N visible
30 Apr 5.2 23:47:08 13° W 23:47:08 13° W 23:48:49 10° WNW visible
